Hourly Data Report for July 02, 2021

DRYDEN REGIONAL
ONTARIO
Current Station Operator: NAVCAN

49°49'39.000" N
92°44'39.000" W
412.70 m
6032125
71527
YHD

Download Data

Hourly Data (July 2021)
Hourly Data Report for July 2, 2021
TIME
LST
Temp Definition
°C
Dew Point Definition
°C
Rel Hum Definition
%
Precip. Amount Definition
mm

Wind Dir Definition
10's deg

Wind Spd Definition
km/h
Visibility Definition
km
Stn Press Definition
kPa
Hmdx Definition


Wind Chill Definition


Weather Definition


00:00 18.4 12.2 67 0.0 19 9 16.1 97.07     LegendNANA
01:00 17.9 13.1 73 0.0 20 9 16.1 96.98     LegendNANA
02:00 18.1 13.0 72 0.0 19 11 16.1 97.03     LegendNANA
03:00 17.1 11.8 71 0.0 24 8 16.1 97.07     LegendNANA
04:00 17.6 11.9 69 0.0 20 9 16.1 97.09     LegendNANA
05:00 17.8 12.0 69 0.0 21 9 16.1 97.12     LegendNANA
06:00 18.8 12.5 67 0.0 24 13 16.1 97.13     LegendNANA
07:00 20.8 13.7 63 0.0 26 11 16.1 97.10     LegendNANA
08:00 22.3 13.9 59 0.0 27 13 16.1 97.07 26   LegendNANA
09:00 24.3 14.6 54 0.0 27 18 16.1 97.04 28   LegendNANA
10:00 26.6 14.4 47 0.0 26 15 16.1 97.04 30   LegendNANA
11:00 28.0 14.2 42 0.0 27 15 16.1 97.01 31   LegendNANA
12:00 29.3 13.0 36 0.0 29 18 16.1 96.96 32   LegendNANA
13:00 29.8 13.0 35 0.0 23 8 16.1 96.91 33   LegendNANA
14:00 30.8 12.9 33 0.0 27 9 16.1 96.87 34   LegendNANA
15:00 31.7 12.5 30 0.0 28 15 16.1 96.82 34   LegendNANA
16:00 31.5 13.0 32 0.0 25 13 16.1 96.77 34   LegendNANA
17:00 31.6 12.8 31 0.0 25 13 16.1 96.75 34   LegendNANA
18:00 30.7 13.3 34 0.0 25 13 16.1 96.72 34   LegendNANA
19:00 29.0 14.1 39 0.0 25 17 16.1 96.70 32   LegendNANA
20:00 26.8 14.4 46 0.0 24 15 16.1 96.69 30   LegendNANA
21:00 25.0 14.3 51 0.0 24 11 16.1 96.70 29   LegendNANA
22:00 23.7 14.8 57 0.0 23 11 16.1 96.69 28   LegendNANA
23:00 22.6 14.8 61 0.0 23 11 16.1 96.69 26   LegendNANA

Notes on Data Quality.

Legend

  • E = Estimated
  • M = Missing
  • NA = Not Available*
  • [empty] = Indicates an unobserved value
Date modified: